This demonstration page uses our WeatherBlox Daily Observations layout. Learn more.

Left ArrowRight Arrow

Hourly Observations for November 17, 2016

Temp ( °F °C ) Dew Point ( °F °C ) Humidity (%) Winds ( mph kmh ) Pressure ( in mb ) Visibility ( mi km ) Precip ( " mm )
12:59 am 00:59 Mostly Cloudy 52 11.1 44 6.7 75 75 S 3 6 29.98 1015 9 14 0.00 0.00
1:59 am 01:59 Mostly Cloudy 51 10.6 44 6.7 77 77 Calm 30.00 1016 9 14 0.00 0.00
2:59 am 02:59 Mostly Clear 50 10 44 6.7 80 80 N 6 9 30.01 1016 9 14 0.00 0.00
3:59 am 03:59 Mostly Clear 53 11.7 45 7.2 74 74 N 9 15 30.02 1017 9 14 0.00 0.00
4:59 am 04:59 Clear 52 11.1 44 6.7 75 75 N 8 13 30.03 1017 9 14 0.00 0.00
5:59 am 05:59 Clear 52 11.1 44 6.7 75 75 N 7 11 30.05 1018 9 14 0.00 0.00
6:59 am 06:59 Sunny 52 11.1 44 6.7 75 75 N 8 13 30.07 1018 8 13 0.00 0.00
7:59 am 07:59 Sunny 54 12.2 43 6.1 67 67 N 10 17 30.09 1019 8 13 0.00 0.00
8:59 am 08:59 Sunny 57 13.9 44 6.7 62 62 N 13 20 30.11 1020 9 14 0.00 0.00
9:59 am 09:59 Sunny 59 15 43 6.1 56 56 N 12 19 30.12 1020 9 14 0.00 0.00
10:59 am 10:59 Mostly Sunny 61 16.1 44 6.7 54 54 N 10 17 30.11 1020 10 16 0.00 0.00
11:59 am 11:59 Mostly Sunny 62 16.7 43 6.1 50 50 N 13 20 30.09 1019 10 16 0.00 0.00
12:59 pm 12:59 Mostly Sunny 64 17.8 43 6.1 46 46 N 8 13 30.08 1019 10 16 0.00 0.00
1:59 pm 13:59 Mostly Sunny 63 17.2 41 5 45 45 N 7 11 30.07 1018 10 16 0.00 0.00
2:59 pm 14:59 Sunny 63 17.2 43 6.1 48 48 N 7 11 30.07 1018 10 16 0.00 0.00
3:59 pm 15:59 Sunny 59 15 45 7.2 60 60 NE 7 11 30.08 1019 10 16 0.00 0.00
4:59 pm 16:59 Clear 52 11.1 46 7.8 80 80 ESE 3 6 30.09 1019 10 16 0.00 0.00
5:59 pm 17:59 Clear 50 10 45 7.2 83 83 Calm 30.11 1020 10 16 0.00 0.00
6:59 pm 18:59 Clear 48 8.9 44 6.7 86 86 Calm 30.11 1020 10 16 0.00 0.00
7:59 pm 19:59 Clear 45 7.2 43 6.1 93 93 Calm 30.13 1020 10 16 0.00 0.00
8:59 pm 20:59 Clear with Patchy Fog 45 7.2 43 6.1 93 93 Calm 30.14 1021 8 13 0.00 0.00
9:59 pm 21:59 Clear with Patchy Fog 44 6.7 42 5.6 93 93 Calm 30.14 1021 8 13 0.00 0.00
10:59 pm 22:59 Clear with Patchy Fog 45 7.2 42 5.6 90 90 Calm 30.14 1021 8 13 0.00 0.00
11:59 pm 23:59 Clear with Patchy Fog 45 7.2 42 5.6 90 90 Calm 30.15 1021 7 11 0.00 0.00

Powered by AerisWeather